Showing default

OPS 9326 (IDSCS 13), 2653

Orbit data source: Space-Track

OPS 9326 (IDSCS 13), 2653 is a payload satellite owned by USAF SSD (US) in GEO that was launched on Wed, 18 Jan 1967 UTC via a TITAN IIIC launch vehicle from the Air Force Eastern Test Range (AFETR). Payload-class satellites include a variety of spacecraft equipped with specific instruments for various scientific and technological missions. These include communications satellites like Starlink; space stations such as the ISS; scientific satellites like the Hubble; Earth observation satellites from companies like Planet Labs, Umbra, and HawkEye 360; GPS; miniature CubeSats for education and research; and military/defense satellites.

Not visible in the next 10 days
Identifier
2653, 1967-003F
Orbit
GEO
Country
Flag of USUS
Related business
Manufacturer
Philco-Ford WDL
Mission
Non-operational spacecraft
Bus & Motor
IDCSP, Unknown motor
Mass
45 kg wet, 45 kg dry
Launch date (UTC)
1967-01-18 (59 years ago)
Launch vehicle
TITAN IIIC
Launch site
Air Force Eastern Test Range (AFETR)
Object type
Payload
Rocket body
Debris
Shape & HBR
Unknown
Radar Cross Section
Medium (>0.1 m² and <1 m²)

Expand to show TLE details & history
Last TLE update: 3 weeks ago

TLE from 3 weeks ago
0 OPS 9326 (IDSCS 13)
1 02653U 67003F   26024.26318847 -.00000058  00000-0  00000-0 0  9999
2 02653   7.9091  47.5793 0043391  59.9906 300.5138  1.07747966131144
Epoch: 2026-01-24T06:18Z
TLE epoch observation values (Epoch: 2026-01-24T06:18:59.483Z)
Latitude
-0.00001°
Longitude
-170.68127°
Altitude
33,724.462 km
Speed
3.156 km/s
True Right ascension
03h 10m 37s
True Declination
0° 00' 00"
Sunlit
Object was in daylight at epoch
Visualization orbit readout
Latitude
Unknown
Longitude
Unknown
Altitude
Unknown
Speed
Unknown
Apparent Right ascension
Unknown
Apparent Declination
Unknown
Sunlit
N/A
Visualization observer readout
Local Sidereal Time
06:41:16
Azimuth
Unknown
Elevation
Unknown
Doppler factor
Unknown
Orbital elements
Apogee altitude
33,988.379 km
Perigee altitude
33,639.583 km
Semi-major axis
40,192.118 km
Eccentricity
0.00434
Inclination
7.9091°
RAAN
47.5793°
Arg. of periapsis
59.9906°
True anomaly
300.08426°
Mean anomaly
300.5138°
Eccentric anomaly
300.29915°
Mean motion
0.26936 °/min
Orbital period
1,336.51 mins
BSTAR
0
Loading maneuver chart data...
Computing Atmospheric mass density...
Loading historical data...
Loading historical data...
Loading historical data...
Loading historical data...
Loading historical data...
Loading historical data...
Loading historical data...

Documentation

Showing up to 5 results
|